TimeEDT,TemperatureF,Dew PointF,Humidity,Sea Level PressureIn,VisibilityMPH,Wind Direction,Wind SpeedMPH,Gust SpeedMPH,PrecipitationIn,Events,Conditions,WindDirDegrees,DateUTC
12:35 AM,28.4,24.8,86,29.69,10.0,NNW,8.1,-,N/A,,Overcast,340,2013-03-20 04:35:00
12:55 AM,28.4,23.0,80,29.69,10.0,NNW,6.9,-,N/A,,Scattered Clouds,330,2013-03-20 04:55:00
1:15 AM,28.4,24.8,86,29.70,10.0,NW,5.8,-,N/A,,Partly Cloudy,310,2013-03-20 05:15:00
1:35 AM,28.4,24.8,86,29.69,10.0,NW,3.5,-,N/A,,Mostly Cloudy,310,2013-03-20 05:35:00
1:55 AM,28.4,24.8,86,29.71,10.0,NW,4.6,-,N/A,,Mostly Cloudy,310,2013-03-20 05:55:00
2:15 AM,28.4,24.8,86,29.72,10.0,WNW,3.5,-,N/A,,Overcast,300,2013-03-20 06:15:00
2:35 AM,28.4,24.8,86,29.73,10.0,NW,3.5,-,N/A,,Overcast,320,2013-03-20 06:35:00
3:15 AM,28.4,23.0,80,29.72,10.0,West,11.5,19.6,N/A,,Scattered Clouds,280,2013-03-20 07:15:00
3:35 AM,28.4,19.4,69,29.73,10.0,West,10.4,-,N/A,,Partly Cloudy,280,2013-03-20 07:35:00
3:55 AM,26.6,19.4,74,29.73,10.0,West,10.4,-,N/A,,Clear,270,2013-03-20 07:55:00
4:15 AM,26.6,17.6,69,29.73,10.0,West,10.4,-,N/A,,Clear,280,2013-03-20 08:15:00
4:35 AM,26.6,17.6,69,29.74,10.0,West,11.5,-,N/A,,Clear,270,2013-03-20 08:35:00
4:55 AM,26.6,15.8,64,29.74,10.0,West,12.7,20.7,N/A,,Clear,270,2013-03-20 08:55:00
5:35 AM,26.6,15.8,64,29.75,10.0,West,13.8,20.7,N/A,,Clear,270,2013-03-20 09:35:00
5:55 AM,26.6,15.8,64,29.75,10.0,West,10.4,-,N/A,,Clear,260,2013-03-20 09:55:00
6:15 AM,26.6,15.8,64,29.76,10.0,West,9.2,18.4,N/A,,Clear,260,2013-03-20 10:15:00
6:35 AM,26.6,17.6,69,29.76,10.0,West,10.4,17.3,N/A,,Clear,260,2013-03-20 10:35:00
6:55 AM,26.6,15.8,64,29.77,10.0,West,9.2,-,N/A,,Clear,260,2013-03-20 10:55:00
7:15 AM,26.6,15.8,64,29.77,10.0,WSW,9.2,-,N/A,,Clear,250,2013-03-20 11:15:00
7:35 AM,26.6,17.6,69,29.77,10.0,WSW,9.2,-,N/A,,Clear,250,2013-03-20 11:35:00
8:15 AM,26.6,17.6,69,29.77,10.0,West,15.0,19.6,N/A,,Partly Cloudy,270,2013-03-20 12:15:00
8:35 AM,28.4,17.6,64,29.76,10.0,West,12.7,20.7,N/A,,Scattered Clouds,280,2013-03-20 12:35:00
8:55 AM,28.4,17.6,64,29.77,10.0,West,9.2,19.6,N/A,,Partly Cloudy,270,2013-03-20 12:55:00
9:15 AM,28.4,17.6,64,29.77,10.0,WNW,10.4,20.7,N/A,,Scattered Clouds,290,2013-03-20 13:15:00
9:35 AM,30.2,17.6,60,29.76,10.0,WNW,16.1,21.9,N/A,,Mostly Cloudy,290,2013-03-20 13:35:00
9:55 AM,30.2,15.8,55,29.76,10.0,West,18.4,27.6,N/A,,Mostly Cloudy,270,2013-03-20 13:55:00
10:15 AM,30.2,17.6,60,29.76,10.0,West,15.0,25.3,N/A,,Mostly Cloudy,280,2013-03-20 14:15:00
10:35 AM,32.0,15.8,51,29.76,10.0,West,17.3,23.0,N/A,,Mostly Cloudy,270,2013-03-20 14:35:00
11:15 AM,33.8,15.8,48,29.76,10.0,West,15.0,24.2,N/A,,Mostly Cloudy,270,2013-03-20 15:15:00
11:35 AM,33.8,15.8,48,29.77,10.0,West,17.3,28.8,N/A,,Mostly Cloudy,270,2013-03-20 15:35:00
11:55 AM,33.8,15.8,48,29.78,10.0,West,17.3,25.3,N/A,,Mostly Cloudy,270,2013-03-20 15:55:00
12:15 PM,33.8,15.8,48,29.77,10.0,West,15.0,21.9,N/A,,Mostly Cloudy,280,2013-03-20 16:15:00
12:35 PM,33.8,15.8,48,29.77,10.0,WNW,18.4,31.1,N/A,,Mostly Cloudy,290,2013-03-20 16:35:00
12:55 PM,35.6,17.6,48,29.77,10.0,West,18.4,24.2,N/A,,Mostly Cloudy,280,2013-03-20 16:55:00
1:15 PM,35.6,15.8,44,29.77,10.0,West,17.3,26.5,N/A,,Partly Cloudy,260,2013-03-20 17:15:00
1:35 PM,35.6,15.8,44,29.76,10.0,West,19.6,26.5,N/A,,Partly Cloudy,270,2013-03-20 17:35:00
2:35 PM,35.6,15.8,44,29.75,10.0,West,11.5,23.0,N/A,,Scattered Clouds,270,2013-03-20 18:35:00
2:55 PM,35.6,15.8,44,29.75,10.0,West,17.3,28.8,N/A,,Clear,280,2013-03-20 18:55:00
3:15 PM,35.6,15.8,44,29.75,10.0,West,16.1,25.3,N/A,,Partly Cloudy,270,2013-03-20 19:15:00
3:35 PM,35.6,15.8,44,29.75,10.0,WNW,13.8,19.6,N/A,,Partly Cloudy,300,2013-03-20 19:35:00
3:55 PM,37.4,17.6,45,29.74,10.0,West,11.5,17.3,N/A,,Mostly Cloudy,260,2013-03-20 19:55:00
4:15 PM,37.4,17.6,45,29.75,10.0,West,13.8,19.6,N/A,,Mostly Cloudy,280,2013-03-20 20:15:00
4:35 PM,37.4,17.6,45,29.75,10.0,West,9.2,23.0,N/A,,Overcast,270,2013-03-20 20:35:00
4:55 PM,37.4,17.6,45,29.75,10.0,West,11.5,19.6,N/A,,Mostly Cloudy,260,2013-03-20 20:55:00
5:35 PM,35.6,15.8,44,29.76,10.0,West,12.7,17.3,N/A,,Mostly Cloudy,280,2013-03-20 21:35:00
5:55 PM,37.4,17.6,45,29.77,10.0,West,9.2,16.1,N/A,,Mostly Cloudy,260,2013-03-20 21:55:00
6:15 PM,35.6,15.8,44,29.77,10.0,WSW,12.7,20.7,N/A,,Mostly Cloudy,250,2013-03-20 22:15:00
6:35 PM,35.6,14.0,41,29.78,10.0,West,9.2,19.6,N/A,,Mostly Cloudy,260,2013-03-20 22:35:00
7:35 PM,33.8,14.0,44,29.79,10.0,WSW,4.6,-,N/A,,Clear,240,2013-03-20 23:35:00
8:15 PM,30.2,14.0,51,29.79,10.0,Calm,Calm,-,N/A,,Clear,0,2013-03-21 00:15:00
8:35 PM,30.2,12.2,47,29.79,10.0,Calm,Calm,-,N/A,,Clear,0,2013-03-21 00:35:00
8:55 PM,30.2,15.8,55,29.80,10.0,Calm,Calm,-,N/A,,Clear,0,2013-03-21 00:55:00
9:15 PM,28.4,14.0,55,29.80,10.0,Calm,Calm,-,N/A,,Clear,0,2013-03-21 01:15:00
9:35 PM,30.2,12.2,47,29.80,10.0,Calm,Calm,-,N/A,,Clear,0,2013-03-21 01:35:00
9:55 PM,30.2,14.0,51,29.81,10.0,Calm,Calm,-,N/A,,Clear,0,2013-03-21 01:55:00
10:35 PM,28.4,14.0,55,29.81,10.0,Calm,Calm,-,N/A,,Clear,0,2013-03-21 02:35:00
10:55 PM,26.6,14.0,59,29.81,10.0,Calm,Calm,-,N/A,,Clear,0,2013-03-21 02:55:00
11:15 PM,26.6,14.0,59,29.80,10.0,Calm,Calm,-,N/A,,Clear,0,2013-03-21 03:15:00
11:35 PM,28.4,14.0,55,29.81,10.0,Calm,Calm,-,N/A,,Clear,0,2013-03-21 03:35:00